www.pogodaiklimat.ru

Погода и климат >> Архив погоды >> Норвегия >> Utsira Fyr


ПОГОДА в Utsira Fyr

  • Прогноз погоды в Utsira Fyr
  • Монитор погоды в Utsira Fyr
  • Климат города

АРХИВ ПОГОДЫ в Utsira Fyr

Время (UTC), дата Ветер
(напр.,м/с)
 
Видим.   Явления Облачность Т
(С)
Тd
(С)
f
(%)
Тe
(С)
Тes
(С)
Комфортность P
(гПа)
Po
(гПа)
Тmin
(С)
Tmax
(С)
R
(мм)
R24
(мм)
S
(см)
14 8.12 СЗ 16
{26}
н/о н/о +4.3 +2.2 86 -4 -4 986.9 980.1 0.6
13 8.12 СЗ 17
{29}
н/о н/о +4.9 +2.3 83 -3 -3 986.6 979.8 1
15 8.12 С 17
{30}
7000 м слабая крупа {ливн. осадки} 9/8 300 м
[Cb cap Ac inh Cs]
+5.0 +1.7 79 -3 -3 987.3 980.5 0.1
16 8.12 С 21
{29}
н/о н/о +4.9 +0.9 75 -4 -4 988.3 981.5
17 8.12 С 17
{26}
н/о н/о +5.8 +1.9 76 -2 -2 988.7 981.9 0.5
18 8.12 С 24
{31}
7000 м слабый ливневой дождь 10/9 300 м
[Cb cap]
+5.3 +0.5 71 -3 -3 990.1 983.3 +3.4 +6.0
20 8.12 СЗ 19
{28}
н/о н/о +5.1 +0.5 72 -3 -3 991.5 984.7
19 8.12 С 21
{28}
н/о н/о +5.4 -0.6 65 -3 -3 990.8 984.0
21 8.12 С 22
{33}
10 км {ливн. осадки} 5/4 300 м
[Cb calv Ac As Cs]
+5.2 0.0 69 -3 -3 992.3 985.5
22 8.12 С 21
{28}
н/о н/о +5.1 +0.3 71 -3 -3 992.4 985.6
23 8.12 С 20
{30}
н/о н/о +5.5 -0.3 66 -2 -2 993.2 986.4
00 9.12 С 17
{33}
н/о н/о +4.8 0.0 71 -3 -3 994.1 987.3
02 9.12 СЗ 21
{28}
н/о н/о +4.5 -0.1 72 -4 -4 995.1 988.3
01 9.12 СЗ 21
{30}
н/о н/о +4.4 +0.2 74 -4 -4 994.5 987.7
03 9.12 СЗ 20
{24}
н/о н/о +4.6 -0.8 68 -4 -4 995.3 988.5
04 9.12 С 17
{26}
н/о н/о +4.1 -1.2 68 -4 -4 995.5 988.7
05 9.12 СЗ 20
{26}
н/о н/о +3.9 -0.7 72 -5 -5 995.7 988.8 0.3
06 9.12 СЗ 17
{30}
10 км слабая крупа {ливн. осадки} 5/5 300 м
[Cb cap]
+3.5 0.0 78 -5 -5 995.9 989.0 +2.5 +5.8
08 9.12 СЗ 16
{23}
н/о н/о +3.5 -2.2 66 -5 -5 995.7 988.8 0.3
07 9.12 С 16
{25}
н/о н/о +3.0 -1.0 75 -5 -5 995.8 988.9
09 9.12 С 13
{20}
15 км в посл. час крупа {ливн. осадки} 8/8 300 м
[Cb cap]
+3.4 -0.4 76 -4 -4 995.6 988.7
10 9.12 СЗ 14
{21}
н/о н/о +3.7 -0.1 76 -4 -4 995.4 988.5
11 9.12 СЗ 13
{22}
н/о н/о +3.3 -0.7 75 -4 -4 995.2 988.3 0.2
12 9.12 СЗ 14
{25}
25 км {ливн. осадки} 5/4 300 м
[Cb cap Ac As Ci fib]
+3.3 -0.7 75 -5 -5 994.8 987.9
14 9.12 СЗ 14
{20}
н/о н/о +1.4 -1.2 83 -7 -7 994.6 987.7 3
13 9.12 СЗ 12
{20}
н/о н/о +3.1 -1.1 74 -4 -4 994.6 987.7
15 9.12 С 8
{14}
5000 м слабый ливневой дождь со снегом 9/9 200 м
[Cb cap]
+1.2 -0.6 88 -6 -6 994.0 987.1 0.6
16 9.12 С 11
{17}
н/о н/о +2.5 -0.2 82 -5 -5 993.2 986.3 0.8
17 9.12 СЗ 10
{14}
н/о н/о +2.8 -1.7 72 -4 -4 993.0 986.1
18 9.12 СЗ 15
{20}
10 км слабая крупа {ливн. осадки} 9/9 300 м
[Cb cap]
+2.4 -0.8 79 -6 -6 992.5 985.6 +1.1 +4.0
20 9.12 С 10
{16}
н/о н/о +2.7 -1.4 74 -4 -4 992.0 985.1
19 9.12
{19}
н/о н/о +2.3 -0.4 82 992.3 985.4 0.5
21 9.12 СЗ 7
{11}
25 км {ливн. осадки} 4/4 300 м
[Cb cap]
+2.9 -2.2 69 -3 -3 991.3 984.5
22 9.12 СЗ 6
{15}
н/о н/о +1.4 -1.7 80 -5 -5 991.0 984.1 0.1
23 9.12 СЗ 7
{10}
н/о н/о +2.3 -2.8 69 -4 -4 990.2 983.3
00 10.12 З 6
{19}
н/о н/о +2.1 -4.0 64 -4 -4 989.6 982.7
02 10.12 ЮЗ 8
{12}
н/о н/о +0.8 -3.1 75 -6 -6 988.0 981.1
01 10.12 З 8
{12}
н/о н/о +1.7 -2.6 73 -5 -5 988.7 981.8
03 10.12
{13}
н/о н/о +0.1 -2.3 84 987.5 980.6 0.4
04 10.12 ЮЗ 6
{9}
н/о н/о +1.8 -2.0 76 -4 -4 986.0 979.2
05 10.12
{11}
н/о н/о +0.4 -1.3 88 985.7 978.8 1
06 10.12 Ю 6
{13}
25 км {ливн. осадки} 9/4 600 м
[Cu med, cong Ac As Cs]
+1.4 -1.8 79 -5 -5 984.2 977.4 +0.1 +3.0
08 10.12 ЮЗ 7
{10}
н/о н/о +2.6 -2.1 71 -3 -3 982.8 976.0
07 10.12 ЮЗ 9
{12}
н/о н/о +2.3 -1.6 75 -5 -5 983.5 976.7 0.2
09 10.12 ЮЗ 8
{11}
20 км 8/4 300 м
[Cu med, cong Cs]
+2.7 -3.2 65 -4 -4 982.4 975.6
10 10.12 Ю 9
{12}
н/о н/о +3.1 -1.8 70 -3 -3 981.8 975.0
11 10.12 Ю 7
{15}
н/о н/о +2.2 -0.5 82 -4 -4 981.2 974.4
12 10.12 Ю 10
{16}
20 км в посл. час крупа {ливн. осадки} 9/6 300 м
[Cb cap Ac As Cs]
+1.9 -1.5 78 -6 -6 981.0 974.2 0.3
14 10.12 Ю 9
{14}
н/о н/о +2.7 -1.3 75 -4 -4 980.2 973.4
13 10.12 Ю 10
{14}
н/о н/о +2.7 -0.7 78 -4 -4 980.5 973.7
15 10.12 Ю 10
{14}
5000 м слабый ливневой дождь со снегом 9/8 300 м
[Cb cap Ac As Cs]
+1.7 -0.7 84 -6 -6 980.2 973.4 0.5
16 10.12 Ю 10
{14}
н/о н/о +1.5 -1.1 83 -6 -6 980.4 973.6
17 10.12 Ю 11
{16}
н/о н/о +1.9 -0.8 82 -6 -6 980.5 973.7
18 10.12 Ю 11
{16}
20 км {ливн. осадки} 6/4 300 м
[Cu med, cong Ac As Cs]
+2.2 -1.4 77 -5 -5 981.0 974.2 +1.3 +3.2
20 10.12 ЮВ 11
{16}
н/о н/о +2.1 -2.2 73 -5 -5 982.0 975.2
19 10.12 Ю 11
{16}
н/о н/о +2.3 -1.6 75 -5 -5 981.5 974.7
21 10.12 ЮВ 10
{15}
20 км 8/5 600 м
[Cu med, cong Ac As Cs]
+2.2 -2.5 71 -5 -5 982.5 975.7
22 10.12 ЮВ 10
{14}
н/о н/о +2.1 -3.2 68 -5 -5 982.8 976.0
23 10.12 ЮВ 9
{13}
н/о н/о +1.8 -3.4 68 -5 -5 983.4 976.6
00 11.12 Ю 9
{16}
н/о н/о +2.0 -3.5 67 -5 -5 984.1 977.3
02 11.12 ЮВ 7
{12}
н/о н/о +2.1 -3.2 68 -4 -4 985.4 978.6
01 11.12 Ю 8
{12}
н/о н/о +2.2 -3.1 68 -4 -4 984.7 977.9
03 11.12 ЮВ 8
{11}
н/о н/о +1.9 -3.3 68 -5 -5 986.1 979.3
04 11.12 ЮВ 7
{11}
н/о н/о +2.0 -3.5 67 -4 -4 986.7 979.9
05 11.12 ЮВ 7
{10}
н/о н/о +1.7 -3.5 68 -5 -5 987.6 980.7
06 11.12 ЮВ 8
{12}
25 км 5/3 600 м
[Sc Ac trans Cs]
+1.6 -3.6 68 -5 -5 988.5 981.6 +1.6 +2.4
08 11.12 ЮВ 6
{10}
н/о н/о +1.5 -4.1 66 -4 -4 990.2 983.3
07 11.12 ЮВ 7
{11}
н/о н/о +1.5 -3.9 67 -5 -5 989.3 982.4
09 11.12 ЮВ 7
{10}
55 км 5/1 600 м
[Sc Ac trans Cs]
+1.4 -3.8 68 -5 -5 990.6 983.7
10 11.12 ЮВ 7
{9}
н/о н/о +1.9 -3.7 66 -4 -4 991.4 984.5
11 11.12 ЮВ 6
{9}
н/о н/о +2.0 -3.9 65 -4 -4 992.0 985.1
12 11.12 ЮВ 6
{11}
55 км 1/1 1000 м
[Cu hum Ci fib]
+1.9 -4.4 63 -4 -4 992.7 985.8
14 11.12 ЮВ 6
{9}
н/о н/о +1.6 -5.1 61 -4 -4 993.5 986.6
13 11.12 ЮВ 6
{9}
н/о н/о +1.9 -4.6 62 -4 -4 993.2 986.3
15 11.12 ЮВ 6
{8}
40 км 1/1 1000 м
[Cu hum Ci sp]
+1.5 -5.0 62 -4 -4 994.1 987.2
16 11.12 ЮВ 5
{7}
н/о н/о +1.3 -4.9 63 -4 -4 994.7 987.8
17 11.12 ЮВ 4
{8}
н/о н/о +1.1 -5.1 63 -4 -4 995.2 988.3
18 11.12 ЮВ 3
{9}
30 км ясно +0.7 -4.5 68 -3 -3 995.6 988.7 +0.7 +2.2
20 11.12 ЮВ 4
{5}
н/о н/о +0.3 -5.1 67 -5 -5 996.2 989.3
19 11.12 В 3
{5}
н/о н/о +0.3 -4.7 69 -4 -4 995.9 989.0
21 11.12 ЮВ 3
{5}
40 км ясно +0.1 -4.9 69 -4 -4 996.5 989.5
22 11.12 В 3
{4}
н/о н/о -0.1 -4.5 72 -5 -5 996.7 989.7
23 11.12 В 3
{3}
н/о н/о -0.2 -4.3 74 -5 -5 996.5 989.5
00 12.12 ЮВ 3
{5}
н/о н/о -0.1 -4.0 75 -5 -5 996.7 989.7
02 12.12 ЮВ 2
{2}
н/о н/о +0.1 -4.5 71 -3 -3 996.7 989.7
01 12.12 ЮВ 2
{3}
н/о н/о +0.2 -4.6 70 -3 -3 996.6 989.6
03 12.12 ЮЗ 2
{4}
н/о н/о +0.8 -3.1 75 -2 -2 996.2 989.3
04 12.12 З 4
{6}
н/о н/о +2.8 -1.5 73 -2 -2 996.0 989.1
05 12.12 С 9
{14}
н/о н/о +3.2 +0.3 81 -4 -4 996.1 989.2
06 12.12
{14}
2000 м слабый ливневой дождь со снегом 9/9 300 м
[Cb cap]
+0.8 -1.7 83 996.3 989.4 -0.3 +4.1 0.1
08 12.12 Ю 3
{6}
н/о н/о +2.4 +0.8 89 -2 -2 996.2 989.3 0.3
07 12.12 Ю 5
{6}
н/о н/о +1.6 -0.2 88 -4 -4 995.9 989.0 1
09 12.12 Ю 6
{7}
15 км {ливн. осадки} 5/4 200 м
[Cb cap Ac As Ci fib]
+2.5 +0.9 89 -4 -4 996.2 989.3 0.2
10 12.12 Ю 4
{7}
н/о н/о +2.9 +1.3 89 -2 -2 996.6 989.7
11 12.12 ЮВ 6
{8}
н/о н/о +2.6 +1.1 90 -3 -3 996.5 989.6
12 12.12 ЮВ 6
{8}
15 км {ливн. осадки} 6/5 300 м
[Cb cap Ac As Ci fib]
+2.8 +1.5 91 -3 -3 996.5 989.6 0.1
14 12.12 ЮВ 6
{8}
н/о н/о +2.4 +1.1 91 -4 -4 996.4 989.5
13 12.12 ЮВ 6
{8}
н/о н/о +2.1 +0.8 91 -4 -4 996.5 989.6 0.1
15 12.12 ЮВ 5
{7}
25 км 4/4 300 м
[Cb cap]
+2.6 +1.3 91 -3 -3 996.5 989.6
16 12.12 н/о
17 12.12 ЮВ 6
{8}
н/о н/о +2.4 +1.1 91 -4 -4 996.5 989.6
18 12.12 ЮВ 6
{8}
20 км 8/8 300 м
[Cu med, cong]
+2.5 +1.2 91 -4 -4 996.3 989.4 +0.8 +3.0
20 12.12 ЮВ 7
{9}
н/о н/о +2.6 +1.3 91 -4 -4 996.0 989.1
19 12.12 ЮВ 7
{9}
н/о н/о +2.6 +1.3 91 -4 -4 996.0 989.1
21 12.12 ЮВ 7
{10}
20 км 5/5 300 м
[Sc]
+3.0 +1.7 91 -3 -3 995.5 988.6
22 12.12 ЮВ 7
{10}
н/о н/о +3.3 +1.8 90 -3 -3 995.0 988.1
23 12.12 Ю 6
{10}
н/о н/о +4.2 +1.1 80 -1 -1 994.2 987.4
00 13.12 Ю 7
{10}
н/о н/о +4.4 +1.1 79 -1 -1 993.5 986.7
02 13.12 ЮЗ 6 н/о н/о +4.1 +1.1 81 -1 -1 992.0 985.2 0.6
01 13.12 Ю 8 н/о н/о +4.5 +2.2 85 -2 -2 992.7 985.9
03 13.12 Ю 6 н/о н/о +4.5 +1.7 82 -1 -1 991.0 984.2 0.4
04 13.12 Ю 9 н/о н/о +5.3 +0.7 72 -1 -1 989.9 983.1
05 13.12 Ю 8
{16}
н/о н/о +5.2 +2.2 81 -1 -1 988.7 981.9 0.3
06 13.12 Ю 11 15 км {дождь} 10/9 300 м
[Sc]
+4.9 +2.1 82 -2 -2 987.5 980.7
08 13.12 Ю 13
{18}
н/о н/о +5.8 +3.7 86 -1 -1 984.3 977.6 2
07 13.12 Ю 13
{18}
н/о н/о +5.0 +2.7 85 -2 -2 985.9 979.1 0.9
09 13.12 Ю 10
{17}
10 км слабый дождь 10/9 300 м
[Frnb As op]
+5.6 +3.3 85 -1 -1 983.1 976.4 2
10 13.12 З 10
{13}
н/о н/о +5.8 +3.2 83 -0 -0 982.5 975.8
11 13.12 З 10
{14}
н/о н/о +5.9 +2.6 79 -0 -0 982.8 976.1
12 13.12 ЮЗ 9
{18}
20 км {дождь} 9/6 300 м
[Cu med, cong Ci sp]
+6.0 +1.4 72 0 0 982.5 975.8
14 13.12 ЮЗ 8
{14}
н/о н/о +5.9 +1.6 74 +1 +1 981.5 974.8 0.2
13 13.12 ЮЗ 9
{15}
н/о н/о +5.8 +1.5 74 0 0 982.0 975.3
15 13.12 ЮЗ 8
{10}
20 км 5/3 300 м
[Cu med, cong Cs]
+5.8 +1.5 74 0 0 980.8 974.1
16 13.12 Ю 8
{10}
н/о н/о +6.2 +1.6 72 +1 +1 979.8 973.1
17 13.12 Ю 10
{13}
н/о н/о +6.5 +2.0 73 +1 +1 978.9 972.2
18 13.12 ЮВ 12
{16}
10 км слабый дождь 10/9 300 м
[Sc As op]
+6.0 +3.2 82 -1 -1 978.0 971.3 +4.8 +6.5 0.1
20 13.12 Ю 13
{18}
н/о н/о +5.6 +3.6 87 -1 -1 976.5 969.8 3
19 13.12 ЮВ 13
{18}
н/о н/о +5.5 +3.2 85 -2 -2 977.1 970.4 0.1
21 13.12 Ю 11
{18}
6000 м дождь 10/9 300 м
[Frnb As op]
+5.3 +3.3 87 -1 -1 975.9 969.2 4
22 13.12 Ю 12
{19}
н/о н/о +5.7 +3.7 87 -1 -1 975.4 968.7 3
23 13.12 ЮВ 13
{19}
н/о н/о +5.5 +2.9 83 -1 -1 974.7 968.0 0.7
00 14.12 ЮВ 14
{19}
н/о н/о +5.4 +2.6 82 -2 -2 974.2 967.5 0.6
02 14.12 ЮЗ 5
{8}
н/о н/о +2.8 +1.0 88 -3 -3 974.4 967.7 0.8
01 14.12 ЮЗ 7
{19}
н/о н/о +4.3 +2.0 85 -1 -1 974.1 967.4 3
03 14.12 З 4
{7}
н/о н/о +1.8 +0.3 90 -3 -3 974.7 967.9 2
04 14.12 З 5
{9}
н/о н/о +2.4 +1.1 91 -3 -3 974.7 968.0 2
05 14.12 СЗ 8
{12}
н/о н/о +2.6 +1.1 90 -4 -4 974.7 968.0 2
06 14.12 СЗ 5
{19}
8000 м дождь 10/9 300 м
[Frnb As op]
+2.7 +1.1 89 -3 -3 975.2 968.5 +1.5 +6.2 2
08 14.12 СЗ 4
{6}
н/о н/о +2.8 +0.9 87 -2 -2 976.4 969.7 1
07 14.12 СЗ 5
{8}
н/о н/о +2.8 +1.0 88 -3 -3 975.8 969.1 1
09 14.12 С 1
{5}
10 км слабый дождь 10/3 300 м
[Frnb As op]
+3.1 +1.0 86 +2 +2 977.1 970.4 0.4
10 14.12 СВ 1
{3}
н/о н/о +3.1 +1.0 86 +2 +2 978.1 971.3 1
11 14.12 В 1
{3}
н/о н/о +2.7 +0.8 87 +1 +1 978.6 971.8 1
12 14.12 СВ 3
{8}
8000 м слабый дождь 10/6 300 м
[Frnb As op]
+2.8 +1.2 89 -1 -1 978.8 972.0 0.4
14 14.12 В 4
{5}
н/о н/о +2.5 +1.0 90 -2 -2 980.0 973.2
13 14.12 В 3
{4}
н/о н/о +3.0 +1.5 90 -1 -1 979.3 972.5 0.3
15 14.12 В 3
{6}
2100 м в посл. час дождь 10/9 300 м
[Sc]
+2.6 +1.1 90 -2 -2 980.4 973.6 0.1
16 14.12 ЮВ 3
{6}
н/о н/о +2.6 +1.1 90 -2 -2 980.9 974.1
17 14.12 ЮВ 4
{6}
н/о н/о +3.3 +2.0 91 -1 -1 981.5 974.7 0.1
18 14.12 ЮВ 7
{9}
6000 м дождь 10/9 300 м
[Frnb As op]
+3.5 +2.3 92 -3 -3 982.4 975.6 +2.4 +3.5 3
20 14.12 ЮВ 4
{7}
н/о н/о +3.5 +1.4 86 -1 -1 984.0 977.2
19 14.12 ЮВ 5
{9}
н/о н/о +3.6 +1.8 88 -2 -2 983.2 976.4 0.1
21 14.12 В 5
{7}
25 км {дождь} 3/3 600 м
[Sc]
+2.9 +0.6 85 -2 -2 984.8 978.0
22 14.12 ЮВ 3
{5}
н/о н/о +2.8 +0.7 86 -1 -1 985.6 978.8
23 14.12 ЮВ 3
{4}
н/о н/о +2.6 +0.2 84 -2 -2 986.2 979.4
00 15.12 Ю 4
{9}
н/о н/о +3.2 +0.6 83 -1 -1 986.6 979.8
02 15.12 З 3
{6}
н/о н/о +4.1 +1.0 80 +1 +1 987.8 981.0 0.1
01 15.12 ЮЗ 3
{5}
н/о н/о +3.7 +1.1 83 -0 -0 987.0 980.2
03 15.12 З 5
{6}
н/о н/о +4.3 +1.3 81 -1 -1 987.9 981.1
04 15.12 З 6
{8}
н/о н/о +4.6 +2.0 83 -1 -1 988.2 981.4
05 15.12 С 7
{9}
н/о н/о +4.5 +0.8 77 -1 -1 988.8 982.0
06 15.12 СВ 6
{9}
25 км 4/3 600 м
[Cu hum Ci fib]
+4.0 +1.1 81 -1 -1 989.5 982.7 +2.6 +4.8
08 15.12 С 10
{13}
н/о н/о +3.6 -2.1 66 -3 -3 991.2 984.4
07 15.12
{12}
н/о н/о +3.8 -0.9 71 990.5 983.7
09 15.12 С 11
{14}
40 км 4/1 600 м
[Cu hum Cs]
+3.9 -1.4 68 -3 -3 991.8 985.0
10 15.12 С 12
{16}
н/о н/о +3.8 -3.0 61 -3 -3 992.5 985.7
11 15.12 С 13
{17}
н/о н/о +4.2 -1.6 66 -3 -3 993.2 986.4
12 15.12 С 11
{17}
55 км 8/3 600 м
[Cu med, cong Cs]
+4.1 -1.9 65 -3 -3 993.6 986.8
13 15.12 С 11
{15}
н/о н/о +4.2 -0.4 72 -3 -3 994.1 987.3

 

Местоположение метеостанции Utsira Fyr (Норвегия): широта 59.31 долгота 4.88 высота над уровнем моря 55 м.

В архиве по умолчанию представлена погода в Utsira Fyr за последнюю неделю. Архивные данные за месяц целиком и за предыдущие месяцы, начиная с января 2011 года, Вы можете получить, выбрав интересующий диапазон дат из раскрывающегося списка и нажав кнопку "Ввод!".

Внимание! Время в таблицах - всемирное. Для получения местного времени необходимо прибавить поправку, которая в Utsira Fyr равна 1 ч.

Смотрите также архив погоды в соседних городах и на ближайших метеорологических станциях:

Погода в Rovaer (Норвегия) (18 км)
Погода в Haugesund Lufthavn (Норвегия) (19 км)
Погода в Kvitsoy (Норвегия) (41 км)
Погода в Vats I Vindafjord (Норвегия) (52 км)
Погода в Stavanger (Норвегия) (62 км)
Погода в Stavanger Lufthavn (Норвегия) (65 км)
Погода в Fister-Sigmundstad (Норвегия) (67 км)
Погода в Slatteroy Fyr (Норвегия) (68 км)
Погода в Saerheim (Норвегия) (75 км)
Погода в Liarvatn (Норвегия) (76 км)

Пояснения к столбцам:

Ветер - указаны скорость ветра в м/с - средняя за 10 мин, порывы в срок и между сроками (в фигурных скобках) и направление, откуда дует ветер: С - северный, СВ - северо-восточный, В - восточный, ЮВ - юго-восточный, Ю - южный, ЮЗ - юго-западный, З - западный, СЗ - северо-западный.
Видимость - горизонтальная дальность видимости в метрах или километрах. При видимости от 1 до 10 км при отсутствии осадков обычно наблюдается дымка, при ухудшении видимости до 1 км и менее - туман. В сухую погоду видимость может ухудшаться дымом, пылью или мглою.
Явления - указаны атмосферные явления, наблюдавшиеся в срок или в последний час перед сроком; фигурными скобками обозначены явления, наблюдавшиеся между сроками (за 1-3 часа до срока); квадратными скобками обозначены град или гололедные отложения с указанием их диаметра в мм.
Облачность - указаны через наклонную черту общая и нижняя облачность в баллах и высота нижней границы облаков в метрах; квадратными скобками обозначены формы облаков: Ci - перистые, Cs - перисто-слоистые, Cc - перисто-кучевые, Ac - высококучевые, As - высокослоистые, Sc - слоисто-кучевые, Ns - слоисто-дождевые, Cu - кучевые, Cb - кучево-дождевые. Подробнее классификацию облаков см. в Атласе облаков (PDF).
T - Температура воздуха - температура, измеренная на высоте 2 м над землей.
Td - Температура точки росы - температура, при понижении до которой содержащийся в воздухе водяной пар достигнет насыщения.
f - Относительная влажность воздуха - влажноcть воздуха, измеренная на высоте 2 м над землей.
Te - Эффективная температура - температура, которую ощущает одетый по сезону человек в тени. Характеристика душности погоды. При расчете учитывается влияние влажности воздуха и скорости ветра на теплоощущения человека.
Tes - Эффективная температура на солнце - температура, которую ощущает человек, с поправкой на солнечный нагрев. Характеристика знойности погоды. Зависит от высоты солнца над горизонтом, облачности и скорости ветра. Ночью, в пасмурную погоду, а также при ветре 12 м/с и более поправка равна нулю.
P - Атмосферное давление - приведенное к уровню моря атмосферное давление.
Po - Атмосферное давление - измеренное на уровне метеостанции атмосферное давление.
Tmin - Минимальная температура - минимум температуры воздуха на высоте 2 м над землей.
Tmax - Максимальная температура - максимум температуры воздуха на высоте 2 м над землей.
R - Количество осадков - Количество выпавших осадков за период времени, мм. При наведении курсора мыши на число - период времени, за который выпало указанное количество осадков.
R24 - Количество осадков - Количество выпавших осадков за 24 часа, мм.
S - Снежный покров - Высота снежного покрова, см. При наведении курсора мыши на число - состояние снежного покрова и степень покрытия местности в баллах.